User: anonymous   Login
Location: Fort Wayne
(41.1310°N, 85.1290°W)
Time: 15:25:58
(UTC-05:00)
Language:

Tiros 1 despin weight - Orbit

View from above orbital plane
View from above orbital plane
View from above satellite
View from above satellite

Ground track
Ground track

The orbit data is extracted from the following two-line orbital elements,

1 00115U 60002D   16043.19548169  .00001117  00000-0  16325-3 0  9992
2 00115  48.1678 342.3748 0034593  96.6643 263.8209 14.82618177977358
Epoch (UTC): 12 February 2016 04:41:29
Eccentricity: 0.0034593
inclination: 48.1678°
perigee height: 597 km
apogee height: 645 km
right ascension of ascending node: 342.3748°
argument of perigee: 96.6643°
revolutions per day: 14.82618177
mean anomaly at epoch: 263.8209°
orbit number at epoch: 97735

The dashed part of the orbit path shows where the satellite is in the earth's shadow,  

DLR